Temperature
22 21 21 21 20 19 21 23 24 24 24 25 25 24 23 23 22 21 21 21 21 21 21 20 21 20 20 20 20 20 19 19 19 19 19 19 19 19 19 19 19 18 18 18 18 18 18 18 18
22 21 21 20 20 20 22 24 24 25 25 25 24 23 23 22 22 21 20 21 21 21 21 21 20 20 20 20 20 20 19 19 19 19 19 19 19 19 19 19 19 18 18 18 18 18 18 18 18
22 21 21 19 20 21 23 25 26 26 26 25 24 23 23 22 21 21 21 21 21 21 21 21 21 20 20 20 20 20 19 19 19 19 19 19 19 19 19 19 19 18 18 18 18 18 18 18 18
22 21 21 19 21 24 25 26 26 26 25 25 24 22 22 23 22 22 22 21 21 21 21 21 21 20 20 20 20 20 19 19 19 19 19 19 19 19 19 19 19 19 18 18 18 18 18 18 18
22 21 20 20 23 26 27 27 27 26 25 24 23 22 22 22 22 22 22 21 21 21 21 20 20 20 20 20 20 20 19 19 19 19 19 19 19 19 19 19 19 19 19 18 18 18 18 18 18
22 21 20 21 24 27 28 28 27 26 25 24 23 22 21 21 22 21 21 21 21 21 21 20 20 20 20 20 20 20 19 19 19 19 19 19 19 19 19 19 19 19 19 19 18 18 18 18 18
22 21 21 23 25 27 28 28 27 25 24 24 23 21 21 20 21 21 21 21 21 21 21 20 20 20 20 20 20 19 19 19 19 19 19 18 18 18 18 19 19 19 19 18 18 18 18 18 18
24 21 22 23 26 27 28 28 27 26 25 24 24 21 20 21 21 21 21 21 21 21 20 20 20 20 20 20 19 19 19 19 19 19 18 18 18 18 18 18 18 18 19 18 18 18 18 18 18
25 21 21 24 27 27 28 28 27 26 25 24 24 24 22 21 21 20 20 20 20 20 20 20 20 20 19 19 19 19 19 19 19 18 18 18 18 18 18 18 18 18 18 18 18 18 18 18 18
25 21 23 26 27 28 29 28 27 25 24 23 23 23 22 21 21 20 20 20 20 20 20 20 20 19 19 19 19 19 19 18 18 18 18 18 18 18 18 18 18 18 18 18 18 18 18 18 18
25 23 25 27 29 29 28 28 27 25 23 23 23 22 21 21 21 20 20 20 20 20 19 19 19 19 19 19 19 19 19 18 18 18 18 17 17 17 17 18 18 18 18 18 18 18 18 18 18
26 26 28 29 29 29 28 27 26 25 25 25 24 23 22 21 21 20 20 20 20 19 19 19 19 19 19 19 19 19 18 18 18 18 17 17 17 17 17 17 17 17 17 17 17 17 17 18 18
26 27 29 29 29 28 27 26 25 24 25 24 23 22 22 21 21 21 20 20 20 19 19 19 19 19 19 18 19 18 18 18 18 18 17 17 17 17 17 17 17 17 17 17 17 17 17 17 17
27 27 28 28 28 28 26 25 24 24 24 23 22 21 22 21 21 20 20 19 19 19 19 19 19 19 18 18 18 18 18 18 18 18 17 17 17 17 17 17 17 17 17 17 17 17 17 17 17
27 26 26 27 27 27 26 24 23 24 23 22 21 21 21 21 21 21 20 19 19 19 19 19 19 18 18 18 18 18 18 18 18 17 18 17 17 17 17 17 17 17 16 16 16 16 17 17 17
25 25 24 26 27 27 25 23 23 24 23 21 21 21 20 20 20 20 20 19 19 19 19 18 18 18 18 18 18 18 18 18 18 18 18 17 17 17 17 17 16 16 16 16 16 16 16 16 16
23 23 24 26 27 26 25 23 23 23 22 21 21 20 20 20 20 20 19 19 19 19 18 18 18 18 18 18 18 18 18 18 18 17 17 17 17 17 17 16 16 16 16 16 16 16 16 16 16
23 24 25 26 27 26 24 23 22 23 22 21 21 20 20 19 19 19 19 19 19 18 18 18 18 18 18 18 18 18 18 17 17 17 17 17 17 17 16 16 16 16 16 16 16 16 16 16 16
25 25 25 26 27 25 23 23 22 22 22 21 20 20 19 19 19 19 19 19 18 18 18 18 18 18 18 18 18 18 17 17 17 17 17 17 17 16 16 16 16 16 16 16 16 16 16 16 16
26 26 25 25 26 24 23 22 22 21 21 21 20 20 19 19 18 18 18 18 18 18 18 18 18 18 18 18 18 18 17 17 17 17 17 17 16 16 16 16 16 16 15 15 15 15 16 16 16
27 26 26 25 24 23 23 21 21 20 21 21 21 20 19 19 18 18 18 17 17 18 18 17 18 18 18 18 18 17 17 17 17 17 17 17 16 16 16 16 15 15 15 15 15 15 16 16 16
26 27 27 26 23 20 21 20 20 19 19 20 20 19 19 19 18 18 18 17 17 17 17 18 17 17 17 17 18 18 17 17 17 17 17 16 16 16 15 15 15 15 15 15 15 15 15 15 16
27 27 26 24 21 19 19 19 19 19 19 19 19 19 19 19 19 18 18 18 18 17 17 17 17 17 17 17 18 18 17 17 17 17 16 16 16 16 15 15 15 15 15 15 15 15 15 15 15
27 25 22 19 18 19 19 19 18 18 19 19 19 20 19 19 18 18 18 18 17 17 17 17 17 17 17 17 17 17 17 17 17 17 16 16 16 16 16 15 15 15 15 15 15 15 15 15 15
26 23 21 21 19 19 18 19 18 19 20 20 19 19 20 19 19 18 18 17 17 17 17 17 17 17 17 17 17 17 17 17 17 17 16 16 16 16 16 16 15 15 15 15 15 15 15 15 15
25 23 21 21 20 18 18 18 19 20 20 20 20 20 19 19 19 19 18 18 18 17 17 17 17 17 17 17 17 17 17 17 17 17 16 16 16 16 16 16 16 15 16 16 15 15 15 15 15
25 23 22 20 20 18 18 18 19 20 20 20 20 20 19 19 19 19 19 18 18 18 17 17 17 17 17 17 17 17 17 17 17 17 16 16 16 16 16 16 16 16 16 16 15 15 15 15 15
25 24 21 20 20 20 19 19 18 20 19 20 19 19 19 19 19 19 19 19 18 18 18 18 17 17 17 17 17 17 17 17 17 17 17 17 16 16 16 16 16 16 16 16 16 16 16 16 15
24 23 21 19 19 19 18 19 20 19 19 19 19 20 20 20 20 20 19 19 19 18 18 18 18 18 17 17 17 17 17 17 17 17 17 17 17 16 16 16 16 16 16 16 16 16 16 16 16
24 22 20 20 20 19 18 19 21 20 19 19 20 20 20 21 20 20 20 19 19 19 18 18 18 18 18 18 18 17 17 17 17 17 17 17 17 17 17 17 17 16 16 16 16 16 16 16 16
Wind_Speed
8 6 2 1 3 3 2 4 5 4 2 3 7 8 8 5 4 4 6 15 19 18 19 22 23 23 22 21 20 20 19 18 17 17 17 16 16 16 15 15 14 14 14 13 12 12 12 12 12
5 5 2 2 2 1 4 5 6 6 6 9 10 9 6 4 5 9 9 18 21 19 19 21 24 23 22 21 21 20 19 18 17 16 16 16 15 15 15 14 14 14 13 12 12 12 11 11 11
3 3 2 2 2 4 4 4 6 5 6 7 6 5 4 6 8 8 11 20 19 16 19 22 24 24 23 22 21 20 19 18 17 16 16 16 15 15 14 14 13 13 12 12 11 11 10 10 10
2 2 1 0 7 8 6 7 6 8 6 7 9 5 2 4 6 12 20 20 18 14 18 22 24 23 23 22 21 20 19 18 17 16 16 15 15 14 14 13 13 12 12 11 10 9 9 9 9
2 3 1 3 6 4 5 8 8 8 6 7 9 6 2 2 14 22 21 20 19 14 16 21 24 23 22 21 21 20 19 18 16 16 15 15 14 14 13 12 12 12 11 10 9 8 8 8 9
1 2 0 4 5 2 3 7 10 10 10 9 10 8 2 7 18 20 19 18 18 17 15 19 23 23 22 21 20 20 19 18 16 16 15 14 13 13 12 12 11 11 10 9 8 7 7 6 7
3 1 4 5 4 0 3 6 9 10 10 7 10 8 5 8 14 18 17 17 16 15 14 15 19 21 21 21 20 19 18 17 16 15 14 13 12 12 11 11 10 10 10 8 7 6 5 4 5
5 1 5 4 1 0 2 5 8 10 8 8 7 9 9 12 15 16 15 14 14 14 13 11 14 16 17 18 19 19 18 16 15 14 13 12 11 11 11 10 10 9 9 8 6 5 3 2 3
2 1 5 5 2 1 1 5 4 6 8 4 3 5 13 17 18 17 15 12 12 13 11 10 10 12 15 16 17 17 17 15 14 13 12 11 9 9 10 10 9 9 8 7 6 5 3 1 1
5 4 8 5 3 1 2 4 6 6 7 5 6 8 14 17 19 20 19 18 15 14 12 11 11 10 12 13 14 13 13 12 11 9 9 8 8 8 9 10 9 9 8 7 6 5 4 2 1
6 8 8 6 3 0 2 4 4 9 4 7 13 15 15 15 16 18 18 18 17 16 14 11 11 10 9 8 11 9 9 10 9 8 8 7 6 6 6 6 6 6 6 5 5 4 3 2 2
5 9 7 5 4 0 2 3 3 5 7 11 16 17 15 15 14 15 16 16 15 14 13 11 11 9 7 9 8 8 7 7 6 7 7 6 4 4 4 4 4 4 4 4 3 3 3 3 3
5 6 6 4 2 0 3 4 4 3 7 12 15 15 15 13 12 12 13 13 14 13 13 13 12 9 7 6 6 7 6 7 7 7 7 8 5 3 3 3 3 3 4 4 3 3 3 2 2
6 8 9 6 4 1 4 3 5 5 9 13 14 13 12 12 11 10 12 12 14 13 12 11 12 9 8 6 5 6 7 9 9 8 9 10 7 5 3 2 2 2 3 4 4 4 2 2 2
6 8 11 7 3 2 5 1 4 8 12 12 13 12 11 10 9 10 13 13 13 14 12 12 13 10 9 8 6 8 9 10 8 8 10 9 8 6 4 3 2 1 2 3 3 2 2 2 2
6 5 5 8 3 4 6 5 5 9 12 11 12 12 11 9 8 8 10 12 12 13 13 13 13 11 10 8 7 7 9 9 8 9 9 8 8 7 6 3 2 2 4 4 3 3 3 2 2
4 4 7 9 4 3 4 4 4 8 11 10 9 10 10 8 7 7 8 11 11 12 13 11 11 12 10 9 7 8 8 8 9 9 8 8 8 8 6 3 2 4 4 3 3 3 3 2 2
8 7 8 8 4 3 2 4 5 8 9 9 9 8 8 9 9 9 8 9 9 9 11 11 10 11 10 9 8 7 7 5 7 7 7 8 8 8 6 4 4 5 4 4 3 3 3 2 1
11 11 11 7 2 3 2 3 6 7 6 7 7 8 9 8 8 9 11 10 10 9 10 11 11 10 10 8 8 7 6 5 4 4 8 8 8 8 7 4 4 4 4 3 3 3 3 2 1
13 10 7 3 4 4 1 1 2 4 5 6 8 8 9 8 8 9 10 9 10 11 10 10 10 10 9 8 6 5 6 4 4 3 5 7 8 7 7 5 4 4 4 5 4 3 2 2 2
11 7 4 2 3 6 3 3 2 2 1 2 6 8 8 10 12 11 11 10 10 11 12 12 10 10 9 8 7 7 5 4 3 3 3 4 8 7 7 7 5 4 4 4 3 3 4 2 3
10 7 2 3 4 3 4 2 5 3 4 2 4 5 8 8 10 11 12 12 12 11 10 10 9 9 9 9 10 10 7 6 5 5 4 3 6 7 8 7 6 5 4 4 3 4 3 4 2
9 5 2 4 5 3 5 2 6 4 4 5 5 6 8 9 11 12 12 12 11 11 11 10 10 9 8 9 10 9 7 5 4 4 5 4 3 5 7 8 7 5 4 4 4 4 4 3 3
6 3 6 6 6 3 2 1 6 4 6 5 4 6 9 10 11 11 10 10 9 9 10 10 10 9 8 9 9 9 9 8 8 6 6 4 3 3 5 6 6 5 4 4 4 4 4 3 3
4 3 5 6 4 2 2 1 8 8 7 5 6 7 9 10 11 11 11 11 10 11 11 10 11 10 9 9 8 8 8 9 10 8 7 6 4 4 5 4 4 4 4 5 4 4 3 3 3
6 6 6 4 4 2 2 5 8 7 5 5 5 7 9 10 11 12 12 11 12 12 11 11 12 10 9 9 8 7 8 6 6 7 7 7 6 6 7 6 6 6 6 5 4 3 2 2 2
3 4 7 7 3 3 4 5 8 3 2 2 3 6 9 11 12 12 12 11 12 13 12 12 11 10 9 9 8 7 7 7 7 7 7 6 6 6 7 7 7 6 6 5 5 3 3 3 3
5 5 5 5 4 2 3 4 5 5 6 4 4 6 7 9 11 12 12 12 12 12 11 11 11 11 9 9 9 8 7 7 7 6 7 7 6 6 8 9 8 7 7 6 5 4 3 4 4
2 2 4 4 6 6 4 7 7 10 9 8 7 8 9 11 12 12 12 11 11 10 11 11 11 10 10 10 9 8 7 7 7 6 7 7 6 7 8 9 9 9 8 7 6 6 5 5 5
6 7 7 5 3 4 5 7 6 9 8 8 8 7 8 10 11 11 11 11 11 11 11 11 11 11 10 10 9 8 8 7 7 7 7 7 7 7 8 9 9 9 9 8 8 8 7 7 7
Wind_Direction
172 178 179 24 45 42 267 225 190 206 180 115 103 104 115 115 152 163 140 141 139 143 147 144 141 138 135 133 130 128 126 124 122 120 118 116 115 114 112 111 109 108 106 103 98 94 92 93 94
179 186 157 51 84 345 268 228 184 202 162 119 91 90 90 77 95 115 126 142 141 142 144 143 142 139 137 136 134 132 130 129 127 126 124 122 120 118 116 114 112 110 108 105 100 96 93 93 94
200 191 142 109 199 206 235 229 177 159 128 117 100 77 100 131 125 132 144 143 139 140 142 144 142 140 140 138 137 135 134 133 131 130 128 126 123 122 120 119 116 114 111 107 101 96 93 92 93
157 102 59 133 253 240 217 216 163 130 91 99 109 94 81 146 141 140 141 142 138 138 141 144 143 141 141 141 140 138 138 137 136 134 131 130 129 127 126 124 120 117 114 110 106 98 94 92 89
121 106 35 280 263 243 208 182 153 129 124 116 110 104 71 52 125 135 142 142 139 138 141 145 143 143 143 143 143 142 142 141 141 139 137 135 135 134 132 130 127 123 120 117 113 105 97 91 86
30 96 58 270 273 263 172 139 118 111 118 118 113 117 97 122 132 142 143 142 142 142 141 145 145 145 146 146 146 146 145 146 146 145 144 143 143 142 140 138 137 134 130 126 121 115 105 94 84
166 164 243 257 277 11 144 132 128 129 129 142 137 121 127 146 145 143 140 140 141 141 141 144 149 149 149 149 149 149 150 151 152 151 150 149 149 150 150 150 149 146 144 141 135 126 116 102 85
176 104 294 284 270 6 140 122 131 131 130 136 133 139 159 168 147 138 135 137 140 143 146 146 149 149 150 151 152 153 154 155 156 156 156 157 159 160 161 163 164 161 157 156 154 149 142 116 86
170 54 274 271 277 295 104 105 117 107 114 119 120 143 154 150 140 137 135 137 145 149 150 149 149 150 151 152 156 157 157 160 161 163 164 164 166 169 173 178 179 175 172 172 174 175 182 200 36
150 190 242 240 238 220 59 93 124 98 101 98 99 115 137 143 144 148 152 155 158 158 158 157 155 156 157 158 154 158 158 162 165 168 166 166 174 183 187 192 192 189 187 189 194 195 202 218 288
189 215 252 273 276 97 83 71 100 122 144 170 155 152 151 151 152 155 159 161 163 163 163 161 160 162 164 153 155 160 158 162 168 172 171 168 171 179 179 182 192 193 193 197 206 205 202 204 190
243 255 261 280 299 352 129 108 94 147 187 172 158 155 153 158 159 158 161 162 159 161 163 160 159 162 162 156 162 162 157 161 161 162 158 148 140 142 153 160 172 173 184 188 187 190 201 199 173
282 283 291 291 318 238 106 115 123 150 150 150 153 153 156 159 156 153 157 159 155 162 164 161 156 157 159 156 163 159 156 155 148 138 137 137 129 129 136 146 153 163 171 170 164 177 184 167 148
294 305 300 300 302 189 129 136 122 172 153 150 154 156 156 159 157 150 150 158 157 161 160 155 152 157 157 159 159 150 149 142 132 126 127 128 127 125 117 108 121 129 150 165 167 169 161 156 145
311 315 310 292 262 201 116 44 197 172 156 158 162 162 161 162 157 161 162 164 162 160 156 156 154 158 156 153 157 146 142 136 129 125 123 122 121 116 111 109 107 106 126 141 131 117 110 126 129
330 323 294 283 228 204 135 226 229 165 157 163 168 169 169 172 168 168 165 161 163 158 161 162 155 154 152 151 139 134 136 133 131 126 119 113 108 106 105 106 99 85 93 106 107 94 93 84 98
329 279 271 282 247 185 152 216 202 170 161 168 170 169 172 172 164 167 168 160 165 164 163 158 153 150 150 143 130 130 130 129 132 128 118 110 103 104 104 97 83 90 91 86 103 87 106 105 99
271 274 277 276 273 138 162 209 190 180 159 164 168 167 169 178 176 169 169 167 162 162 159 152 154 149 142 131 119 117 112 121 129 127 124 116 106 102 102 93 79 90 91 82 86 87 79 108 122
260 271 278 284 280 115 164 190 185 181 162 168 172 175 176 179 175 166 167 168 159 158 160 157 154 152 145 139 135 133 135 141 132 136 135 124 113 104 99 93 78 86 94 98 97 88 70 50 74
269 274 277 314 35 95 142 193 182 176 178 183 182 182 178 166 165 168 166 168 167 165 162 154 156 155 153 148 144 141 140 146 142 134 134 131 121 117 107 106 100 91 92 77 69 77 83 30 62
280 257 243 221 63 41 47 2 340 334 303 202 193 179 167 171 168 168 169 173 172 172 168 165 162 159 155 146 129 121 106 98 100 124 139 144 133 124 117 113 107 94 103 97 84 82 101 79 23
282 272 212 129 84 6 28 325 300 316 319 269 214 181 172 173 169 169 170 174 177 177 169 163 163 161 158 149 143 147 148 154 175 171 166 159 150 141 133 121 113 105 107 110 107 92 99 106 65
272 277 105 100 105 68 23 66 302 341 305 280 236 198 179 174 173 172 172 174 175 171 167 165 163 166 166 157 154 153 150 158 156 151 153 158 158 159 150 135 126 120 116 117 107 95 89 99 109
278 30 55 57 72 48 313 94 287 268 255 275 241 205 183 175 170 166 163 165 168 166 164 166 165 170 172 163 157 156 156 157 152 158 168 175 175 170 168 154 144 143 136 134 127 117 107 104 101
329 65 17 356 13 259 240 208 252 256 251 252 241 207 182 173 165 164 167 169 170 170 169 170 170 176 177 168 164 164 164 163 166 170 177 178 183 189 193 169 159 158 164 160 146 133 128 128 120
252 159 173 215 225 215 265 241 257 261 247 239 213 181 169 170 171 174 176 175 172 173 174 174 177 180 178 172 173 171 167 165 172 175 177 186 194 199 190 180 176 176 175 170 155 148 165 159 156
221 225 178 150 133 128 246 277 297 272 267 230 165 162 172 176 178 177 176 176 175 176 179 178 178 181 180 179 176 177 176 172 176 179 180 190 200 202 190 183 182 182 181 176 166 175 194 188 195
176 169 95 113 145 192 237 250 245 240 217 209 189 183 187 180 180 178 178 178 178 178 177 174 177 184 184 181 183 188 187 185 183 180 188 195 202 199 183 185 185 186 186 182 177 184 199 195 212
222 112 122 132 151 154 207 252 227 210 202 201 207 203 194 187 183 183 181 179 176 174 175 178 180 182 185 188 189 187 189 190 187 191 198 197 197 191 186 186 187 191 194 193 191 202 204 208 226
179 181 153 153 218 165 175 251 252 197 197 200 203 201 192 186 181 182 179 175 176 178 180 182 184 186 189 190 189 193 193 191 196 204 206 199 195 193 191 188 190 198 201 199 199 210 213 213 224
Height
1519 1520 1520 1521 1521 1527 1527 1516 1509 1507 1505 1503 1503 1505 1508 1511 1515 1521 1517 1520 1525 1528 1532 1535 1538 1539 1541 1542 1543 1544 1545 1546 1547 1548 1549 1550 1551 1552 1553 1554 1555 1555 1556 1557 1557 1558 1558 1558 1558
1520 1520 1521 1521 1526 1536 1527 1509 1505 1502 1502 1502 1504 1506 1508 1510 1511 1512 1515 1520 1525 1528 1532 1535 1538 1540 1541 1543 1544 1545 1546 1547 1548 1549 1550 1551 1552 1553 1554 1555 1556 1556 1557 1558 1559 1559 1559 1559 1560
1519 1520 1522 1522 1526 1529 1519 1503 1499 1499 1501 1501 1504 1507 1509 1510 1511 1513 1516 1521 1525 1529 1532 1535 1538 1540 1541 1543 1544 1545 1546 1547 1548 1549 1551 1552 1553 1554 1555 1556 1557 1557 1558 1559 1560 1560 1561 1561 1562
1520 1521 1521 1525 1524 1512 1504 1498 1496 1498 1501 1502 1503 1509 1511 1512 1511 1513 1517 1522 1526 1529 1533 1536 1538 1540 1542 1543 1544 1545 1547 1548 1549 1550 1551 1552 1554 1555 1555 1556 1557 1558 1559 1560 1561 1562 1562 1563 1564
1518 1519 1523 1526 1516 1502 1495 1494 1494 1496 1500 1503 1504 1508 1511 1513 1513 1515 1518 1522 1526 1530 1533 1536 1539 1541 1542 1544 1545 1546 1547 1548 1549 1551 1552 1553 1554 1555 1556 1557 1558 1559 1560 1561 1562 1563 1564 1565 1566
1518 1518 1528 1528 1511 1497 1494 1492 1494 1497 1500 1502 1504 1508 1513 1514 1514 1517 1520 1523 1527 1530 1533 1536 1539 1541 1543 1544 1545 1546 1547 1549 1550 1551 1552 1553 1555 1556 1557 1558 1559 1560 1561 1562 1563 1564 1565 1566 1567
1518 1519 1524 1517 1508 1499 1494 1492 1493 1496 1498 1501 1502 1507 1513 1515 1515 1518 1521 1524 1527 1530 1533 1536 1539 1541 1543 1544 1546 1547 1548 1549 1550 1551 1552 1554 1555 1556 1557 1558 1559 1560 1562 1563 1564 1565 1566 1568 1568
1515 1517 1518 1514 1506 1500 1493 1492 1493 1494 1497 1500 1501 1504 1509 1512 1516 1518 1522 1525 1527 1530 1533 1535 1538 1540 1542 1544 1546 1547 1548 1549 1550 1552 1553 1554 1555 1556 1558 1559 1560 1561 1562 1563 1564 1566 1567 1568 1569
1514 1520 1522 1511 1503 1497 1492 1492 1494 1494 1496 1499 1500 1501 1504 1510 1514 1518 1521 1524 1527 1529 1533 1535 1538 1540 1542 1544 1546 1547 1549 1550 1551 1552 1553 1554 1555 1556 1558 1559 1560 1561 1562 1563 1564 1566 1567 1568 1569
1510 1520 1511 1499 1494 1492 1490 1491 1493 1496 1498 1499 1500 1502 1505 1509 1512 1514 1516 1520 1524 1527 1531 1534 1537 1540 1542 1544 1546 1547 1549 1550 1551 1552 1553 1554 1555 1556 1558 1559 1560 1561 1562 1563 1564 1565 1567 1568 1569
1505 1508 1498 1494 1491 1490 1489 1491 1492 1495 1499 1497 1497 1500 1504 1508 1510 1512 1514 1517 1521 1525 1529 1533 1536 1539 1542 1544 1545 1547 1549 1550 1551 1552 1553 1554 1555 1556 1557 1558 1559 1560 1561 1563 1564 1565 1566 1568 1569
1501 1497 1494 1492 1490 1489 1489 1490 1492 1492 1493 1494 1495 1498 1502 1505 1508 1510 1513 1516 1520 1524 1527 1531 1534 1538 1541 1543 1545 1547 1548 1550 1551 1552 1553 1554 1555 1556 1557 1557 1558 1560 1561 1562 1563 1565 1566 1567 1569
1498 1494 1492 1490 1488 1488 1488 1489 1490 1492 1492 1494 1496 1499 1501 1504 1507 1510 1512 1515 1518 1522 1526 1529 1533 1537 1540 1542 1545 1547 1548 1550 1551 1552 1553 1554 1555 1555 1556 1557 1557 1559 1560 1561 1563 1564 1565 1567 1568
1497 1493 1490 1487 1486 1486 1488 1489 1490 1492 1493 1495 1497 1498 1501 1503 1505 1508 1511 1514 1516 1519 1523 1527 1531 1536 1538 1541 1544 1546 1548 1549 1551 1552 1553 1554 1554 1555 1555 1556 1557 1558 1559 1560 1562 1563 1564 1565 1567
1496 1495 1490 1485 1484 1485 1487 1493 1490 1489 1492 1494 1497 1498 1500 1502 1505 1506 1508 1511 1514 1517 1521 1525 1528 1533 1537 1540 1543 1545 1547 1549 1550 1552 1552 1553 1553 1554 1554 1555 1556 1557 1558 1559 1560 1562 1563 1564 1566
1497 1500 1502 1487 1482 1483 1489 1499 1489 1489 1490 1493 1495 1497 1500 1501 1503 1505 1507 1509 1512 1515 1519 1523 1526 1531 1535 1538 1541 1544 1546 1548 1550 1551 1552 1552 1552 1553 1553 1554 1555 1556 1557 1558 1560 1561 1562 1564 1565
1505 1511 1504 1491 1480 1481 1487 1494 1488 1488 1489 1492 1494 1496 1498 1500 1502 1504 1505 1507 1511 1514 1517 1522 1525 1528 1533 1537 1540 1543 1545 1548 1549 1550 1551 1551 1551 1552 1552 1553 1554 1555 1556 1558 1559 1561 1562 1563 1564
1513 1508 1500 1494 1481 1482 1488 1491 1487 1487 1489 1491 1494 1495 1497 1499 1499 1501 1503 1505 1509 1512 1516 1520 1524 1527 1531 1535 1538 1542 1544 1547 1548 1549 1550 1550 1551 1551 1552 1553 1554 1555 1556 1557 1559 1560 1561 1563 1564
1499 1500 1498 1489 1479 1484 1489 1489 1487 1487 1489 1490 1492 1494 1495 1497 1498 1499 1502 1505 1507 1511 1514 1518 1522 1526 1530 1533 1536 1539 1543 1545 1547 1548 1549 1550 1550 1551 1552 1552 1553 1554 1555 1557 1558 1559 1561 1562 1563
1493 1496 1495 1488 1481 1485 1490 1490 1488 1488 1488 1488 1489 1491 1493 1495 1497 1498 1500 1503 1505 1508 1512 1517 1521 1525 1529 1532 1535 1539 1542 1544 1546 1548 1549 1549 1550 1550 1551 1552 1553 1554 1555 1556 1557 1559 1560 1561 1562
1488 1490 1489 1489 1488 1489 1493 1498 1494 1491 1489 1488 1488 1489 1491 1493 1495 1497 1499 1501 1504 1508 1511 1515 1519 1523 1528 1532 1535 1538 1541 1543 1545 1547 1548 1549 1550 1550 1551 1552 1553 1554 1555 1556 1557 1558 1560 1561 1562
1492 1478 1478 1483 1495 1508 1503 1516 1501 1494 1491 1489 1489 1489 1490 1493 1494 1496 1499 1501 1503 1506 1511 1514 1518 1523 1527 1530 1533 1536 1538 1541 1544 1546 1547 1548 1549 1550 1550 1551 1552 1553 1554 1555 1556 1558 1559 1560 1561
1481 1474 1478 1485 1498 1509 1509 1516 1508 1495 1494 1490 1489 1489 1490 1492 1494 1496 1498 1500 1503 1506 1509 1513 1518 1522 1526 1529 1533 1535 1538 1541 1543 1545 1547 1548 1548 1549 1550 1551 1552 1553 1554 1555 1556 1557 1559 1560 1561
1472 1477 1486 1495 1506 1521 1517 1519 1514 1499 1493 1489 1488 1488 1489 1491 1493 1495 1497 1500 1503 1506 1509 1513 1517 1520 1524 1528 1531 1534 1537 1539 1542 1544 1546 1547 1548 1549 1550 1551 1552 1553 1553 1554 1555 1557 1558 1559 1560
1474 1491 1512 1517 1526 1526 1516 1516 1510 1489 1485 1486 1486 1486 1487 1489 1491 1493 1496 1499 1502 1505 1508 1512 1515 1519 1523 1526 1530 1533 1536 1539 1541 1543 1545 1546 1547 1548 1549 1551 1551 1552 1553 1554 1555 1556 1557 1558 1559
1475 1486 1511 1523 1527 1526 1518 1517 1499 1484 1482 1482 1482 1483 1485 1488 1490 1492 1495 1498 1500 1503 1507 1510 1514 1518 1522 1525 1528 1532 1535 1538 1540 1542 1544 1546 1547 1548 1549 1550 1551 1552 1552 1553 1554 1555 1556 1557 1558
1474 1480 1483 1502 1511 1526 1521 1510 1493 1482 1483 1481 1482 1483 1485 1486 1489 1491 1494 1497 1499 1502 1505 1509 1513 1517 1521 1524 1528 1531 1534 1537 1539 1541 1543 1545 1546 1547 1548 1549 1550 1551 1552 1552 1553 1554 1554 1556 1557
1463 1470 1486 1500 1517 1525 1521 1513 1505 1488 1485 1482 1482 1483 1484 1486 1488 1491 1493 1496 1498 1501 1505 1508 1512 1516 1520 1524 1527 1530 1533 1536 1538 1540 1542 1543 1545 1546 1547 1548 1549 1550 1551 1551 1552 1552 1553 1554 1555
1466 1473 1482 1495 1502 1519 1527 1513 1482 1480 1478 1479 1480 1481 1482 1484 1486 1489 1492 1495 1498 1501 1504 1508 1511 1515 1519 1522 1525 1528 1531 1534 1536 1538 1540 1542 1543 1544 1546 1547 1548 1549 1549 1550 1551 1551 1552 1553 1553
1459 1467 1477 1494 1499 1503 1511 1504 1471 1472 1473 1475 1477 1478 1480 1482 1484 1488 1491 1494 1497 1500 1503 1506 1510 1513 1517 1520 1524 1526 1529 1532 1534 1536 1538 1540 1541 1542 1544 1545 1546 1547 1548 1548 1549 1550 1550 1551 1552